sat.trackr.live / text

‹ back to catalog

STARLINK-11206 [DTC]

NORAD 60312 · 2024-133M

PAYLOAD ACTIVE UNKNOWN

§ Identity

Operator
Country
US
Launch date
2024-07-28
Launch site
AFWTR
Launch vehicle
Mass (kg)
RCS (m²)

Purposes: comms

External: N2YO · Heavens-Above · Gunter

§ Orbital elements

Epoch: 2026-09-21T16:33:00.766080Z

Period
91.74 min
Inclination
53.1587°
Eccentricity
0.0001019
Mean motion
15.69709679 rev/d
Perigee alt
359.0 km
Apogee alt
360.4 km
Semi-major
6,737.9 km
B*
-4.2247e-6
RAAN
260.3360°
Arg perigee
94.2293°
Mean anomaly
265.8841°
Rev number
12,451

§ Raw data

STARLINK-11206 [DTC]1 60312U 24133M   26264.68959220 -.00001100  00000+0 -42247-5 0  99932 60312  53.1587 260.3360 0001019  94.2293 265.8841 15.69709679124519

JSON: /api/v1/satellites/60312 · /tle

For live sub-satellite position, see the globe view (requires WebGL).

§ Visibility from observer

Set your observer location to see the next 7 days of passes ≥ 10°. The values pass through the URL so the page stays shareable.

No JS? Fill the form by hand. The geolocation button needs JavaScript.